12-05-2023, 00:00:09,     23,    0.0,    7.4,   0.00,   0.00, 1016.3,    0.0, -999.0
12-05-2023, 00:00:19,     23,    0.0,    7.5,   0.00,   0.00, 1016.3,    0.4, -999.0
12-05-2023, 00:00:29,     23,    0.0,    7.6,   0.00,   0.00, 1016.3,    0.1, -999.0
12-05-2023, 00:00:39,     23,    0.0,    7.5,   0.00,   0.00, 1016.3,    0.9, -999.0
12-05-2023, 00:00:49,     23,    0.0,    7.5,   0.00,   0.00, 1016.3,    0.4, -999.0
12-05-2023, 00:00:59,     25,    0.0,    7.6,   0.00,   0.00, 1016.3,    0.5, -999.0
12-05-2023, 00:01:09,     24,    0.0,    7.5,   0.00,   0.00, 1016.3,    0.5, -999.0
12-05-2023, 00:01:19,     23,    0.0,    7.5,   0.00,   0.00, 1016.3,    0.2, -999.0
12-05-2023, 00:01:29,     23,    0.0,    7.4,   0.00,   0.00, 1016.3,    0.5, -999.0
12-05-2023, 00:01:39,     23,    0.0,    7.3,   0.00,   0.00, 1016.3,    0.0, -999.0
12-05-2023, 00:01:49,     23,    0.0,    7.6,   0.00,   0.00, 1016.3,    0.5, -999.0
12-05-2023, 00:01:59,     23,    0.0,    7.4,   0.00,   0.00, 1016.3,    0.9, -999.0
12-05-2023, 00:02:09,     23,    0.0,    7.4,   0.00,   0.00, 1016.3,    1.1, -999.0
12-05-2023, 00:02:19,     23,    0.0,    7.4,   0.00,   0.00, 1016.3,    0.8, -999.0
12-05-2023, 00:02:29,     23,    0.0,    7.5,   0.00,   0.00, 1016.3,    0.2, -999.0
12-05-2023, 00:02:39,     23,    0.0,    7.5,   0.00,   0.00, 1016.3,    0.3, -999.0
12-05-2023, 00:02:49,     24,    0.0,    7.4,   0.00,   0.00, 1016.3,    0.6, -999.0
12-05-2023, 00:02:59,     23,    0.0,    7.4,   0.00,   0.00, 1016.3,    0.4, -999.0
12-05-2023, 00:03:09,     23,    0.0,    7.5,   0.00,   0.00, 1016.3,    0.4, -999.0
12-05-2023, 00:03:19,     23,    0.0,    7.4,   0.00,   0.00, 1016.3,    0.3, -999.0
12-05-2023, 00:03:29,     23,    0.0,    7.4,   0.00,   0.00, 1016.3,    0.4, -999.0
12-05-2023, 00:03:39,     23,    0.0,    7.5,   0.00,   0.00, 1016.3,    0.6, -999.0
12-05-2023, 00:03:49,     23,    0.0,    7.5,   0.00,   0.00, 1016.3,    0.7, -999.0
12-05-2023, 00:03:59,     23,    0.0,    7.5,   0.00,   0.00, 1016.3,    0.4, -999.0
12-05-2023, 00:04:09,     23,    0.0,    7.5,   0.00,   0.00, 1016.3,    0.5, -999.0
12-05-2023, 00:04:18,     23,    0.0,    7.5,   0.00,   0.00, 1016.3,    0.5, -999.0
12-05-2023, 00:04:29,     23,    0.0,    7.4,   0.00,   0.00, 1016.3,    0.4, -999.0
12-05-2023, 00:04:39,     23,    0.0,    7.4,   0.00,   0.00, 1016.3,    0.5, -999.0
12-05-2023, 00:04:48,     24,    0.0,    7.4,   0.00,   0.00, 1016.3,    0.4, -999.0
12-05-2023, 00:04:59,     23,    0.0,    7.4,   0.00,   0.00, 1016.3,    0.6, -999.0
12-05-2023, 00:05:09,     24,    0.0,    7.4,   0.00,   0.00, 1016.3,    0.3, -999.0
12-05-2023, 00:05:19,     23,    0.0,    7.4,   0.00,   0.00, 1016.3,    0.4, -999.0
12-05-2023, 00:05:28,     23,    0.0,    7.4,   0.00,   0.00, 1016.3,    0.4, -999.0
12-05-2023, 00:05:39,     23,    0.0,    7.4,   0.00,   0.00, 1016.3,    0.4, -999.0
12-05-2023, 00:05:49,     24,    0.0,    7.2,   0.00,   0.00, 1016.3,    0.5, -999.0
12-05-2023, 00:05:58,     23,    0.0,    7.4,   0.00,   0.00, 1016.3,    0.3, -999.0
12-05-2023, 00:06:08,     23,    0.0,    7.4,   0.00,   0.00, 1016.3,    0.4, -999.0
12-05-2023, 00:06:19,     23,    0.0,    7.4,   0.00,   0.00, 1016.3,    0.6, -999.0
12-05-2023, 00:06:28,     23,    0.0,    7.4,   0.00,   0.00, 1016.3,    0.3, -999.0
12-05-2023, 00:06:38,     23,    0.0,    7.3,   0.00,   0.00, 1016.3,    0.7, -999.0
12-05-2023, 00:06:48,     23,    0.0,    7.3,   0.00,   0.00, 1016.4,    0.5, -999.0
12-05-2023, 00:06:59,     23,    0.0,    7.4,   0.00,   0.00, 1016.3,    0.4, -999.0
12-05-2023, 00:07:08,     23,    0.0,    7.4,   0.00,   0.00, 1016.3,    0.4, -999.0
12-05-2023, 00:07:18,     23,    0.0,    7.4,   0.00,   0.00, 1016.3,    0.3, -999.0
12-05-2023, 00:07:28,     23,    0.0,    7.4,   0.00,   0.00, 1016.3,    0.5, -999.0
12-05-2023, 00:07:38,     23,    0.0,    7.4,   0.00,   0.00, 1016.3,    0.5, -999.0
12-05-2023, 00:07:48,     23,    0.0,    7.4,   0.00,   0.00, 1016.4,    0.5, -999.0
12-05-2023, 00:07:58,     23,    0.0,    7.5,   0.00,   0.00, 1016.3,    0.4, -999.0
12-05-2023, 00:08:08,     23,    0.0,    7.4,   0.00,   0.00, 1016.3,    0.4, -999.0
12-05-2023, 00:08:18,     24,    0.0,    7.4,   0.00,   0.00, 1016.3,    0.6, -999.0
12-05-2023, 00:08:28,     23,    0.0,    7.4,   0.00,   0.00, 1016.3,    0.5, -999.0
12-05-2023, 00:08:38,     23,    0.0,    7.4,   0.00,   0.00, 1016.3,    0.4, -999.0
12-05-2023, 00:08:48,     23,    0.0,    7.5,   0.00,   0.00, 1016.4,    0.4, -999.0
12-05-2023, 00:08:58,     23,    0.0,    7.5,   0.00,   0.00, 1016.3,    0.4, -999.0
12-05-2023, 00:09:08,     24,    0.0,    7.4,   0.00,   0.00, 1016.3,    0.5, -999.0
12-05-2023, 00:09:18,     23,    0.0,    7.5,   0.00,   0.00, 1016.3,    0.4, -999.0
12-05-2023, 00:09:28,     22,    0.0,    7.3,   0.00,   0.00, 1016.3,    0.6, -999.0
12-05-2023, 00:09:38,     22,    0.0,    7.4,   0.00,   0.00, 1016.4,    0.4, -999.0
12-05-2023, 00:09:48,     23,    0.0,    7.4,   0.00,   0.00, 1016.4,    0.5, -999.0
12-05-2023, 00:09:58,     23,    0.0,    7.4,   0.00,   0.00, 1016.4,    0.3, -999.0
12-05-2023, 00:10:08,     23,    0.0,    7.4,   0.00,   0.00, 1016.4,    0.5, -999.0
12-05-2023, 00:10:18,     23,    0.0,    7.3,   0.00,   0.00, 1016.4,    0.5, -999.0
12-05-2023, 00:10:28,     22,    0.0,    7.3,   0.00,   0.00, 1016.4,    0.3, -999.0
12-05-2023, 00:10:38,     23,    0.0,    7.4,   0.00,   0.00, 1016.4,    0.6, -999.0
12-05-2023, 00:10:48,     23,    0.0,    7.3,   0.00,   0.00, 1016.4,    0.7, -999.0
12-05-2023, 00:10:58,     23,    0.0,    7.3,   0.00,   0.00, 1016.4,    0.5, -999.0
12-05-2023, 00:11:08,     23,    0.0,    7.4,   0.00,   0.00, 1016.4,    0.2, -999.0
12-05-2023, 00:11:18,     22,    0.0,    7.4,   0.00,   0.00, 1016.4,    0.6, -999.0
12-05-2023, 00:11:28,     23,    0.0,    7.4,   0.00,   0.00, 1016.4,    0.6, -999.0
12-05-2023, 00:11:38,     22,    0.0,    7.3,   0.00,   0.00, 1016.4,    0.7, -999.0
12-05-2023, 00:11:48,     19,    0.0,    7.4,   0.00,   0.00, 1016.4,    0.8, -999.0
12-05-2023, 00:11:58,     19,    0.0,    7.4,   0.00,   0.00, 1016.4,    0.2, -999.0
12-05-2023, 00:12:08,     19,    0.0,    7.4,   0.00,   0.00, 1016.4,    0.5, -999.0
12-05-2023, 00:12:18,     19,    0.0,    7.4,   0.00,   0.00, 1016.4,    0.3, -999.0
12-05-2023, 00:12:28,     19,    0.0,    7.4,   0.00,   0.00, 1016.4,    0.0, -999.0
12-05-2023, 00:12:37,     19,    0.0,    7.4,   0.00,   0.00, 1016.4,    0.5, -999.0
12-05-2023, 00:12:48,     19,    0.0,    7.4,   0.00,   0.00, 1016.4,    0.1, -999.0
12-05-2023, 00:12:58,     19,    0.0,    7.3,   0.00,   0.00, 1016.4,    0.3, -999.0
12-05-2023, 00:13:07,     19,    0.0,    7.3,   0.00,   0.00, 1016.4,    0.4, -999.0
12-05-2023, 00:13:18,     19,    0.0,    7.3,   0.00,   0.00, 1016.4,    0.5, -999.0
12-05-2023, 00:13:28,     19,    0.0,    7.3,   0.00,   0.00, 1016.4,    0.1, -999.0
12-05-2023, 00:13:38,     19,    0.0,    7.3,   0.00,   0.00, 1016.4,    0.7, -999.0
12-05-2023, 00:13:47,     19,    0.0,    7.3,   0.00,   0.00, 1016.4,    0.6, -999.0
12-05-2023, 00:13:57,     19,    0.0,    7.4,   0.00,   0.00, 1016.4,    0.4, -999.0
12-05-2023, 00:14:08,     19,    0.0,    7.4,   0.00,   0.00, 1016.4,    0.7, -999.0
12-05-2023, 00:14:17,     19,    0.0,    7.3,   0.00,   0.00, 1016.4,    0.4, -999.0
12-05-2023, 00:14:27,     19,    0.0,    7.3,   0.00,   0.00, 1016.4,    0.3, -999.0
12-05-2023, 00:14:38,     19,    0.0,    7.2,   0.00,   0.00, 1016.4,    0.4, -999.0
12-05-2023, 00:14:48,     19,    0.0,    7.3,   0.00,   0.00, 1016.4,    0.6, -999.0
12-05-2023, 00:14:57,     19,    0.0,    7.3,   0.00,   0.00, 1016.4,    0.3, -999.0
12-05-2023, 00:15:07,     19,    0.0,    7.3,   0.00,   0.00, 1016.4,    0.6, -999.0
12-05-2023, 00:15:18,     19,    0.0,    7.2,   0.00,   0.00, 1016.4,    0.2, -999.0
12-05-2023, 00:15:27,     19,    0.0,    7.2,   0.00,   0.00, 1016.4,    0.6, -999.0
12-05-2023, 00:15:37,     19,    0.0,    7.2,   0.00,   0.00, 1016.4,    0.6, -999.0
12-05-2023, 00:15:47,     19,    0.0,    7.2,   0.00,   0.00, 1016.4,    0.5, -999.0
12-05-2023, 00:15:57,     19,    0.0,    7.3,   0.00,   0.00, 1016.4,    0.3, -999.0
12-05-2023, 00:16:07,     19,    0.0,    7.2,   0.00,   0.00, 1016.4,    0.6, -999.0
12-05-2023, 00:16:17,     19,    0.0,    7.2,   0.00,   0.00, 1016.4,    0.5, -999.0
12-05-2023, 00:16:27,     19,    0.0,    7.2,   0.00,   0.00, 1016.4,    0.5, -999.0
12-05-2023, 00:16:37,     19,    0.0,    7.2,   0.00,   0.00, 1016.4,    0.5, -999.0
12-05-2023, 00:16:47,     19,    0.0,    7.2,   0.00,   0.00, 1016.4,    0.5, -999.0
12-05-2023, 00:16:57,     19,    0.0,    7.3,   0.00,   0.00, 1016.4,    0.3, -999.0
12-05-2023, 00:17:07,     19,    0.0,    7.3,   0.00,   0.00, 1016.5,    0.5, -999.0
12-05-2023, 00:17:17,     19,    0.0,    7.3,   0.00,   0.00, 1016.4,    0.4, -999.0
12-05-2023, 00:17:27,     19,    0.0,    7.1,   0.00,   0.00, 1016.4,    0.5, -999.0
12-05-2023, 00:17:37,     19,    0.0,    7.4,   0.00,   0.00, 1016.4,    0.3, -999.0
12-05-2023, 00:17:47,     19,    0.0,    7.2,   0.00,   0.00, 1016.4,    0.5, -999.0
12-05-2023, 00:17:57,     19,    0.0,    7.3,   0.00,   0.00, 1016.4,    0.5, -999.0
12-05-2023, 00:18:07,     19,    0.0,    7.1,   0.00,   0.00, 1016.4,    0.4, -999.0
12-05-2023, 00:18:17,     19,    0.0,    7.1,   0.00,   0.00, 1016.4,    0.4, -999.0
12-05-2023, 00:18:27,     19,    0.0,    7.3,   0.00,   0.00, 1016.4,    0.4, -999.0
12-05-2023, 00:18:37,     19,    0.0,    7.2,   0.00,   0.00, 1016.4,    0.3, -999.0
12-05-2023, 00:18:49,     19,    0.0,    7.2,   0.00,   0.00, 1016.4,    0.6, -999.0
12-05-2023, 00:18:57,     19,    0.0,    7.3,   0.00,   0.00, 1016.4,    0.3, -999.0
12-05-2023, 00:19:07,     20,    0.0,    7.2,   0.00,   0.00, 1016.4,    0.6, -999.0
12-05-2023, 00:19:17,     19,    0.0,    7.2,   0.00,   0.00, 1016.4,    0.4, -999.0
12-05-2023, 00:19:27,     19,    0.0,    7.2,   0.00,   0.00, 1016.4,    0.4, -999.0
12-05-2023, 00:19:37,     19,    0.0,    7.2,   0.00,   0.00, 1016.5,    0.7, -999.0
12-05-2023, 00:19:47,     19,    0.0,    7.2,   0.00,   0.00, 1016.4,    0.3, -999.0
12-05-2023, 00:19:57,     19,    0.0,    7.2,   0.00,   0.00, 1016.4,    0.4, -999.0
12-05-2023, 00:20:07,     19,    0.0,    7.2,   0.00,   0.00, 1016.4,    0.6, -999.0
12-05-2023, 00:20:17,     19,    0.0,    7.2,   0.00,   0.00, 1016.4,    0.4, -999.0
12-05-2023, 00:20:27,     19,    0.0,    7.2,   0.00,   0.00, 1016.4,    0.6, -999.0
12-05-2023, 00:20:37,     19,    0.0,    7.2,   0.00,   0.00, 1016.5,    0.4, -999.0
12-05-2023, 00:20:47,     19,    0.0,    7.2,   0.00,   0.00, 1016.5,    0.7, -999.0
12-05-2023, 00:20:56,     19,    0.0,    7.2,   0.00,   0.00, 1016.5,    0.3, -999.0
12-05-2023, 00:21:07,     19,    0.0,    7.2,   0.00,   0.00, 1016.5,    0.4, -999.0
12-05-2023, 00:21:17,     19,    0.0,    7.2,   0.00,   0.00, 1016.5,    0.6, -999.0
12-05-2023, 00:21:27,     19,    0.0,    7.2,   0.00,   0.00, 1016.5,    0.5, -999.0
12-05-2023, 00:21:36,     19,    0.0,    7.2,   0.00,   0.00, 1016.5,    0.3, -999.0
12-05-2023, 00:21:47,     19,    0.0,    7.1,   0.00,   0.00, 1016.5,    0.4, -999.0
12-05-2023, 00:21:57,     19,    0.0,    7.0,   0.00,   0.00, 1016.4,    0.4, -999.0
12-05-2023, 00:22:06,     19,    0.0,    7.2,   0.00,   0.00, 1016.5,    0.4, -999.0
12-05-2023, 00:22:16,     19,    0.0,    7.2,   0.00,   0.00, 1016.5,    0.4, -999.0
12-05-2023, 00:22:27,     19,    0.0,    7.2,   0.00,   0.00, 1016.5,    0.7, -999.0
12-05-2023, 00:22:37,     19,    0.0,    7.2,   0.00,   0.00, 1016.5,    1.1, -999.0
12-05-2023, 00:22:46,     19,    0.0,    7.1,   0.00,   0.00, 1016.5,    0.9, -999.0
12-05-2023, 00:22:56,     19,    0.0,    7.1,   0.00,   0.00, 1016.5,    0.7, -999.0
12-05-2023, 00:23:07,     19,    0.0,    7.1,   0.00,   0.00, 1016.5,    0.3, -999.0
12-05-2023, 00:23:16,     19,    0.0,    7.0,   0.00,   0.00, 1016.5,    1.1, -999.0
12-05-2023, 00:23:26,     19,    0.0,    7.2,   0.00,   0.00, 1016.5,    0.5, -999.0
12-05-2023, 00:23:36,     19,    0.0,    7.2,   0.00,   0.00, 1016.5,    0.1, -999.0
12-05-2023, 00:23:46,     18,    0.0,    7.2,   0.00,   0.00, 1016.5,    0.5, -999.0
12-05-2023, 00:23:56,     18,    0.0,    7.2,   0.00,   0.00, 1016.5,    0.7, -999.0
12-05-2023, 00:24:06,     18,    0.0,    7.2,   0.00,   0.00, 1016.5,    0.6, -999.0
12-05-2023, 00:24:17,     18,    0.0,    7.1,   0.00,   0.00, 1016.5,    0.5, -999.0
12-05-2023, 00:24:26,     19,    0.0,    7.2,   0.00,   0.00, 1016.5,    0.4, -999.0
12-05-2023, 00:24:36,     18,    0.0,    7.1,   0.00,   0.00, 1016.5,    0.3, -999.0
12-05-2023, 00:24:46,     18,    0.0,    7.1,   0.00,   0.00, 1016.5,    0.5, -999.0
12-05-2023, 00:24:56,     19,    0.0,    7.1,   0.00,   0.00, 1016.5,    0.4, -999.0
12-05-2023, 00:25:06,     19,    0.0,    7.1,   0.00,   0.00, 1016.5,    0.5, -999.0
12-05-2023, 00:25:16,     19,    0.0,    7.1,   0.00,   0.00, 1016.5,    0.5, -999.0
12-05-2023, 00:25:26,     18,    0.0,    7.2,   0.00,   0.00, 1016.5,    0.3, -999.0
12-05-2023, 00:25:36,     18,    0.0,    7.2,   0.00,   0.00, 1016.5,    0.4, -999.0
12-05-2023, 00:25:46,     18,    0.0,    7.1,   0.00,   0.00, 1016.5,    0.6, -999.0
12-05-2023, 00:25:56,     18,    0.0,    7.2,   0.00,   0.00, 1016.5,    0.4, -999.0
12-05-2023, 00:26:06,     18,    0.0,    7.2,   0.00,   0.00, 1016.5,    0.4, -999.0
12-05-2023, 00:26:16,     19,    0.0,    7.1,   0.00,   0.00, 1016.5,    0.4, -999.0
12-05-2023, 00:26:26,     19,    0.0,    7.2,   0.00,   0.00, 1016.5,    0.5, -999.0
12-05-2023, 00:26:36,     19,    0.0,    7.2,   0.00,   0.00, 1016.5,    0.4, -999.0
12-05-2023, 00:26:46,     19,    0.0,    7.2,   0.00,   0.00, 1016.5,    0.5, -999.0
12-05-2023, 00:26:56,     18,    0.0,    7.2,   0.00,   0.00, 1016.5,    0.5, -999.0
12-05-2023, 00:27:06,     19,    0.0,    7.2,   0.00,   0.00, 1016.5,    0.4, -999.0
12-05-2023, 00:27:16,     19,    0.0,    7.2,   0.00,   0.00, 1016.5,    0.3, -999.0
12-05-2023, 00:27:26,     19,    0.0,    7.2,   0.00,   0.00, 1016.5,    0.3, -999.0
12-05-2023, 00:27:36,     19,    0.0,    7.1,   0.00,   0.00, 1016.5,    0.6, -999.0
12-05-2023, 00:27:46,     19,    0.0,    7.2,   0.00,   0.00, 1016.5,    0.5, -999.0
12-05-2023, 00:27:56,     11,    0.0,    7.2,   0.00,   0.00, 1016.5,    0.6, -999.0
12-05-2023, 00:28:06,      1,    0.0,    7.2,   0.00,   0.00, 1016.5,    0.4, -999.0
12-05-2023, 00:28:16,     10,    0.0,    7.2,   0.00,   0.00, 1016.5,    0.5, -999.0
12-05-2023, 00:28:26,     10,    0.0,    7.1,   0.00,   0.00, 1016.5,    0.4, -999.0
12-05-2023, 00:28:36,     10,    0.0,    7.2,   0.00,   0.00, 1016.5,    0.6, -999.0
12-05-2023, 00:28:46,    358,    0.0,    7.2,   0.00,   0.00, 1016.5,    0.5, -999.0
12-05-2023, 00:28:56,    358,    0.0,    7.3,   0.00,   0.00, 1016.5,    0.5, -999.0
12-05-2023, 00:29:06,    358,    0.0,    7.1,   0.00,   0.00, 1016.5,    0.6, -999.0
12-05-2023, 00:29:16,    358,    0.0,    7.2,   0.00,   0.00, 1016.5,    0.7, -999.0
12-05-2023, 00:29:25,    358,    0.0,    7.3,   0.00,   0.00, 1016.5,    0.4, -999.0
12-05-2023, 00:29:36,    358,    0.0,    7.2,   0.00,   0.00, 1016.5,    0.4, -999.0
12-05-2023, 00:29:46,    358,    0.0,    7.2,   0.00,   0.00, 1016.5,    0.5, -999.0
12-05-2023, 00:29:55,    358,    0.0,    7.2,   0.00,   0.00, 1016.5,    0.4, -999.0
12-05-2023, 00:30:05,    358,    0.0,    7.2,   0.00,   0.00, 1016.5,    0.4, -999.0
12-05-2023, 00:30:16,    358,    0.0,    7.3,   0.00,   0.00, 1016.5,    0.4, -999.0
12-05-2023, 00:30:26,    358,    0.0,    7.3,   0.00,   0.00, 1016.5,    0.4, -999.0
12-05-2023, 00:30:35,    358,    0.0,    7.2,   0.00,   0.00, 1016.5,    0.5, -999.0
12-05-2023, 00:30:46,    358,    0.0,    7.2,   0.00,   0.00, 1016.5,    0.5, -999.0
12-05-2023, 00:30:56,    358,    0.0,    7.2,   0.00,   0.00, 1016.5,    0.4, -999.0
12-05-2023, 00:31:05,    358,    0.0,    7.2,   0.00,   0.00, 1016.5,    0.5, -999.0
12-05-2023, 00:31:15,    358,    0.0,    7.2,   0.00,   0.00, 1016.5,    0.4, -999.0
12-05-2023, 00:31:26,    358,    0.0,    7.2,   0.00,   0.00, 1016.5,    0.4, -999.0
12-05-2023, 00:31:35,    358,    0.0,    7.2,   0.00,   0.00, 1016.5,    0.3, -999.0
12-05-2023, 00:31:45,    358,    0.0,    6.9,   0.00,   0.00, 1016.5,    0.5, -999.0
12-05-2023, 00:31:55,    358,    0.0,    7.1,   0.00,   0.00, 1016.5,    0.6, -999.0
12-05-2023, 00:32:06,    358,    0.0,    7.2,   0.00,   0.00, 1016.5,    0.4, -999.0
12-05-2023, 00:32:15,    358,    0.0,    7.1,   0.00,   0.00, 1016.5,    0.5, -999.0
12-05-2023, 00:32:25,    358,    0.0,    7.1,   0.00,   0.00, 1016.5,    0.6, -999.0
12-05-2023, 00:32:35,    358,    0.0,    7.1,   0.00,   0.00, 1016.6,    0.4, -999.0
12-05-2023, 00:32:45,    358,    0.0,    7.1,   0.00,   0.00, 1016.6,    0.3, -999.0
12-05-2023, 00:32:55,    358,    0.0,    7.1,   0.00,   0.00, 1016.6,    0.5, -999.0
12-05-2023, 00:33:05,    358,    0.0,    7.2,   0.00,   0.00, 1016.6,    0.4, -999.0
12-05-2023, 00:33:15,    358,    0.0,    7.1,   0.00,   0.00, 1016.5,    0.5, -999.0
12-05-2023, 00:33:25,    358,    0.0,    7.1,   0.00,   0.00, 1016.5,    0.5, -999.0
12-05-2023, 00:33:35,    358,    0.0,    7.1,   0.00,   0.00, 1016.5,    0.6, -999.0
12-05-2023, 00:33:45,    358,    0.0,    7.1,   0.00,   0.00, 1016.5,    0.5, -999.0
12-05-2023, 00:33:55,    358,    0.0,    7.1,   0.00,   0.00, 1016.6,    0.3, -999.0
12-05-2023, 00:34:05,    358,    0.0,    7.2,   0.00,   0.00, 1016.5,    0.5, -999.0
12-05-2023, 00:34:15,    358,    0.0,    7.1,   0.00,   0.00, 1016.5,    0.3, -999.0
12-05-2023, 00:34:25,    359,    0.0,    7.1,   0.00,   0.00, 1016.6,    0.4, -999.0
12-05-2023, 00:34:35,    358,    0.0,    7.1,   0.00,   0.00, 1016.6,    0.6, -999.0
12-05-2023, 00:34:45,    358,    0.0,    7.1,   0.00,   0.00, 1016.6,    0.9, -999.0
12-05-2023, 00:34:55,    358,    0.0,    7.1,   0.00,   0.00, 1016.6,    0.7, -999.0
12-05-2023, 00:35:05,    358,    0.0,    7.1,   0.00,   0.00, 1016.6,    0.5, -999.0
12-05-2023, 00:35:15,    358,    0.0,    7.1,   0.00,   0.00, 1016.5,    0.7, -999.0
12-05-2023, 00:35:25,    358,    0.0,    7.1,   0.00,   0.00, 1016.6,    0.4, -999.0
12-05-2023, 00:35:35,    358,    0.0,    7.1,   0.00,   0.00, 1016.6,    0.6, -999.0
12-05-2023, 00:35:45,    358,    0.1,    7.2,   0.00,   0.00, 1016.6,    0.3, -999.0
12-05-2023, 00:35:55,    358,    0.1,    7.2,   0.00,   0.00, 1016.7,    0.5, -999.0
12-05-2023, 00:36:05,    358,    0.2,    7.2,   0.00,   0.00, 1016.7,    0.2, -999.0
12-05-2023, 00:36:15,    358,    0.0,    7.1,   0.00,   0.00, 1016.6,    0.6, -999.0
12-05-2023, 00:36:25,    358,    0.0,    7.0,   0.00,   0.00, 1016.6,    0.6, -999.0
12-05-2023, 00:36:35,    358,    0.0,    7.1,   0.00,   0.00, 1016.6,    0.5, -999.0
12-05-2023, 00:36:45,    358,    0.0,    7.0,   0.00,   0.00, 1016.6,    0.4, -999.0
12-05-2023, 00:36:55,    358,    0.0,    7.0,   0.00,   0.00, 1016.6,    0.3, -999.0
12-05-2023, 00:37:05,    358,    0.0,    7.0,   0.00,   0.00, 1016.7,    0.4, -999.0
12-05-2023, 00:37:15,    358,    0.0,    7.0,   0.00,   0.00, 1016.6,    0.4, -999.0
12-05-2023, 00:37:25,    358,    0.0,    7.0,   0.00,   0.00, 1016.6,    0.4, -999.0
12-05-2023, 00:37:35,    358,    0.0,    7.0,   0.00,   0.00, 1016.6,    0.5, -999.0
12-05-2023, 00:37:44,    358,    0.0,    7.1,   0.00,   0.00, 1016.6,    0.5, -999.0
12-05-2023, 00:37:55,    358,    0.0,    7.0,   0.00,   0.00, 1016.6,    0.4, -999.0
12-05-2023, 00:38:05,    358,    0.0,    6.9,   0.00,   0.00, 1016.6,    0.6, -999.0
12-05-2023, 00:38:15,    358,    0.0,    7.0,   0.00,   0.00, 1016.6,    0.3, -999.0
12-05-2023, 00:38:24,    358,    0.0,    7.1,   0.00,   0.00, 1016.6,    0.5, -999.0
12-05-2023, 00:38:35,    358,    0.0,    7.0,   0.00,   0.00, 1016.6,    0.5, -999.0
12-05-2023, 00:38:45,    358,    0.0,    7.0,   0.00,   0.00, 1016.6,    0.3, -999.0
12-05-2023, 00:38:54,    358,    0.0,    7.0,   0.00,   0.00, 1016.6,    0.5, -999.0
12-05-2023, 00:39:04,    358,    0.0,    7.0,   0.00,   0.00, 1016.6,    0.4, -999.0
12-05-2023, 00:39:15,    358,    0.0,    7.0,   0.00,   0.00, 1016.6,    0.4, -999.0
12-05-2023, 00:39:24,    358,    0.1,    7.0,   0.00,   0.00, 1016.6,    0.8, -999.0
12-05-2023, 00:39:34,    358,    0.0,    7.0,   0.00,   0.00, 1016.6,    0.3, -999.0
12-05-2023, 00:39:45,    358,    0.3,    7.1,   0.00,   0.00, 1016.7,    0.7, -999.0
12-05-2023, 00:39:55,    358,    0.0,    7.0,   0.00,   0.00, 1016.6,    0.4, -999.0
12-05-2023, 00:40:04,    358,    0.0,    6.9,   0.00,   0.00, 1016.6,    0.4, -999.0
12-05-2023, 00:40:14,    358,    0.0,    7.0,   0.00,   0.00, 1016.6,    0.5, -999.0
12-05-2023, 00:40:25,    358,    0.0,    7.0,   0.00,   0.00, 1016.7,    0.5, -999.0
12-05-2023, 00:40:34,    358,    0.2,    7.2,   0.00,   0.00, 1016.7,    0.3, -999.0
12-05-2023, 00:40:44,    359,    0.0,    6.9,   0.00,   0.00, 1016.6,    0.4, -999.0
12-05-2023, 00:40:54,    358,    0.0,    6.9,   0.00,   0.00, 1016.6,    0.4, -999.0
12-05-2023, 00:41:04,    358,    0.0,    7.0,   0.00,   0.00, 1016.6,    0.7, -999.0
12-05-2023, 00:41:14,    358,    0.0,    7.0,   0.00,   0.00, 1016.6,    0.6, -999.0
12-05-2023, 00:41:24,    358,    0.0,    7.0,   0.00,   0.00, 1016.6,    0.3, -999.0
12-05-2023, 00:41:34,    358,    0.0,    7.0,   0.00,   0.00, 1016.7,    0.7, -999.0
12-05-2023, 00:41:44,    358,    0.0,    7.0,   0.00,   0.00, 1016.6,    0.6, -999.0
12-05-2023, 00:41:54,    358,    0.0,    7.0,   0.00,   0.00, 1016.6,    0.6, -999.0
12-05-2023, 00:42:04,    358,    0.0,    6.9,   0.00,   0.00, 1016.6,    0.4, -999.0
12-05-2023, 00:42:14,    358,    0.0,    6.9,   0.00,   0.00, 1016.6,    0.5, -999.0
12-05-2023, 00:42:24,    358,    0.0,    7.0,   0.00,   0.00, 1016.6,    0.4, -999.0
12-05-2023, 00:42:34,    358,    0.0,    6.9,   0.00,   0.00, 1016.6,    0.4, -999.0
12-05-2023, 00:42:44,    358,    0.0,    7.0,   0.00,   0.00, 1016.6,    0.4, -999.0
12-05-2023, 00:42:54,    358,    0.0,    6.9,   0.00,   0.00, 1016.6,    0.3, -999.0
12-05-2023, 00:43:04,    358,    0.0,    7.0,   0.00,   0.00, 1016.7,    0.5, -999.0
12-05-2023, 00:43:14,    358,    0.1,    7.0,   0.00,   0.00, 1016.7,    0.4, -999.0
12-05-2023, 00:43:24,    358,    0.0,    7.0,   0.00,   0.00, 1016.7,    0.2, -999.0
12-05-2023, 00:43:34,    358,    0.0,    7.0,   0.00,   0.00, 1016.6,    0.3, -999.0
12-05-2023, 00:43:44,    358,    0.0,    6.9,   0.00,   0.00, 1016.6,    0.6, -999.0
12-05-2023, 00:43:54,    358,    0.0,    6.9,   0.00,   0.00, 1016.6,    0.5, -999.0
12-05-2023, 00:44:04,    358,    0.0,    6.9,   0.00,   0.00, 1016.6,    0.4, -999.0
12-05-2023, 00:44:14,    358,    0.0,    7.0,   0.00,   0.00, 1016.6,    0.2, -999.0
12-05-2023, 00:44:24,    358,    0.0,    6.8,   0.00,   0.00, 1016.7,    0.4, -999.0
12-05-2023, 00:44:34,    358,    0.0,    6.8,   0.00,   0.00, 1016.6,    0.5, -999.0
12-05-2023, 00:44:44,    358,    0.0,    6.9,   0.00,   0.00, 1016.7,    0.1, -999.0
12-05-2023, 00:44:54,    358,    0.0,    7.0,   0.00,   0.00, 1016.7,    0.6, -999.0
12-05-2023, 00:45:04,    358,    0.0,    7.0,   0.00,   0.00, 1016.6,    0.4, -999.0
12-05-2023, 00:45:14,    358,    0.0,    6.9,   0.00,   0.00, 1016.7,    0.5, -999.0
12-05-2023, 00:45:24,    358,    0.0,    7.0,   0.00,   0.00, 1016.7,    0.6, -999.0
12-05-2023, 00:45:34,    358,    0.0,    7.0,   0.00,   0.00, 1016.7,    0.4, -999.0
12-05-2023, 00:45:44,    358,    0.0,    7.0,   0.00,   0.00, 1016.7,    0.5, -999.0
12-05-2023, 00:45:54,    358,    0.0,    6.9,   0.00,   0.00, 1016.7,    0.5, -999.0
12-05-2023, 00:46:04,    358,    0.0,    7.0,   0.00,   0.00, 1016.7,    0.1, -999.0
12-05-2023, 00:46:13,    358,    0.0,    6.9,   0.00,   0.00, 1016.7,    0.5, -999.0
12-05-2023, 00:46:24,    358,    0.0,    6.9,   0.00,   0.00, 1016.7,    0.5, -999.0
12-05-2023, 00:46:34,    358,    0.0,    6.9,   0.00,   0.00, 1016.7,    0.5, -999.0
12-05-2023, 00:46:43,    358,    0.0,    7.0,   0.00,   0.00, 1016.7,    0.6, -999.0
12-05-2023, 00:46:53,    358,    0.0,    7.0,   0.00,   0.00, 1016.7,    0.5, -999.0